Good Hope, IL

8:11 AM CDT on August 26, 2016 (GMT -0500)
Macomb Municipal

Weather History for KMQB - November, 2012

Change the Weather History Date:

Friday, November 23, 2012

  Actual Average (KBRL) Record (KBRL)
Temperature  
Mean Temperature 31 °F 38 °F  
Max Temperature 39 °F 47 °F 69 °F (1931)
Min Temperature 23 °F 30 °F 3 °F (1950)
Degree Days  
Heating Degree Days 34 26  
Month to date heating degree days 479  
Since 1 July heating degree days 873  
Cooling Degree Days 0 0  
Month to date cooling degree days 0  
Year to date cooling degree days 1206  
Moisture  
Dew Point 21 °F    
Average Humidity 66    
Maximum Humidity 83    
Minimum Humidity 52    
Precipitation  
Precipitation 0.00 in 0.08 in 0.90 in (2014)
Month to date precipitation 1.91  
Year to date precipitation 35.80  
Sea Level Pressure  
Sea Level Pressure 30.25 in    
Wind  
Wind Speed 18 mph (WNW)    
Max Wind Speed 30 mph    
Max Gust Speed 40 mph    
Visibility 10 miles    
Events      
T = Trace of Precipitation, MM = Missing Value Source: NWS Daily Summary

Daily Weather History Graph

Daily Weather History Graph

Search for Another Location

Airport or City:

Trip Planner

Search our weather history database for the weather conditions in past years. The results will help you decide how hot, cold, wet, or windy it might be!

Date:

Astronomy

Nov. 23, 2012 Rise Set
Actual Time 6:58 AM CST 4:39 PM CST
Civil Twilight 6:28 AM CST 5:09 PM CST
Nautical Twilight 5:55 AM CST 5:42 PM CST
Astronomical Twilight 5:22 AM CST 6:15 PM CST
Moon 1:54 PM CST (11/23) 2:16 AM CST (11/23)
Length of Visible Light 10h 40m
Length of Day
9h 40m
Waxing Gibbous, 80% of the Moon is Illuminated
Nov 23
Waxing Gibbous
Nov 28
Full
Dec 6
Last Quarter
Dec 13
New
Dec 19
First Quarter

Hourly Weather History & Observations

Time (CST) Temp. Windchill Dew Point Humidity Pressure Visibility Wind Dir Wind Speed Gust Speed Precip Events Conditions
12:15 AM 39.2 °F 31.6 °F 33.3 °F 79% 30.11 in 10.0 mi West 12.7 mph - N/A   Clear
12:35 AM 39.0 °F 30.6 °F 33.4 °F 80% 30.11 in 10.0 mi West 15.0 mph - N/A   Clear
12:55 AM 38.7 °F 30.5 °F 33.4 °F 81% 30.11 in 10.0 mi West 13.8 mph - N/A   Clear
1:15 AM 38.7 °F 30.5 °F 33.4 °F 81% 30.11 in 10.0 mi West 13.8 mph - N/A   Clear
1:35 AM 38.5 °F 29.9 °F 33.3 °F 81% 30.11 in 10.0 mi West 15.0 mph - N/A   Clear
1:55 AM 37.9 °F 29.2 °F 33.1 °F 83% 30.11 in 10.0 mi West 15.0 mph - N/A   Clear
2:15 AM 37.8 °F 29.0 °F 32.0 °F 80% 30.12 in 10.0 mi West 15.0 mph - N/A   Clear
2:35 AM 37.9 °F 28.5 °F 31.1 °F 76% 30.11 in 10.0 mi West 17.3 mph 23.0 mph N/A   Clear
2:55 AM 37.4 °F 28.2 °F 30.2 °F 75% 30.12 in 10.0 mi West 16.1 mph 21.9 mph N/A   Clear
3:15 AM 37.0 °F 26.4 °F 29.1 °F 73% 30.11 in 10.0 mi West 20.7 mph 25.3 mph N/A   Clear
3:35 AM 36.9 °F 26.8 °F 28.2 °F 71% 30.11 in 10.0 mi WNW 18.4 mph 25.3 mph N/A   Clear
3:55 AM 36.5 °F 27.4 °F 27.0 °F 68% 30.12 in 10.0 mi WNW 15.0 mph 28.8 mph N/A   Clear
4:15 AM 35.2 °F 23.5 °F 27.0 °F 72% 30.12 in 10.0 mi WNW 23.0 mph 27.6 mph N/A   Clear
4:35 AM 35.1 °F 25.2 °F 25.7 °F 69% 30.13 in 10.0 mi WNW 16.1 mph 26.5 mph N/A   Scattered Clouds
4:55 AM 35.8 °F 25.1 °F 25.3 °F 66% 30.13 in 10.0 mi WNW 19.6 mph 27.6 mph N/A   Overcast
5:15 AM 36.0 °F 27.1 °F 25.5 °F 66% 30.13 in 10.0 mi WNW 13.8 mph 19.6 mph N/A   Overcast
5:35 AM 36.3 °F 24.9 °F 24.6 °F 63% 30.14 in 10.0 mi WNW 23.0 mph 28.8 mph N/A   Overcast
5:55 AM 36.3 °F 23.7 °F 23.5 °F 60% 30.15 in 10.0 mi WNW 28.8 mph 40.3 mph N/A   Overcast
6:15 AM 34.3 °F 21.3 °F 21.2 °F 59% 30.16 in 10.0 mi WNW 27.6 mph 39.1 mph N/A   Scattered Clouds
6:35 AM 33.3 °F 20.1 °F 21.6 °F 62% 30.17 in 10.0 mi WNW 26.5 mph 32.2 mph N/A   Clear
6:55 AM 32.5 °F 18.4 °F 21.7 °F 64% 30.18 in 10.0 mi WNW 29.9 mph 39.1 mph N/A   Clear
7:15 AM 32.0 °F 19.5 °F 22.1 °F 67% 30.20 in 10.0 mi WNW 21.9 mph 26.5 mph N/A   Scattered Clouds
7:35 AM 32.4 °F 19.1 °F 22.6 °F 67% 30.21 in 10.0 mi NW 25.3 mph 32.2 mph N/A   Overcast
7:55 AM 32.0 °F 18.1 °F 21.2 °F 64% 30.21 in 10.0 mi WNW 27.6 mph 34.5 mph N/A   Overcast
8:15 AM 32.5 °F 19.9 °F 21.9 °F 65% 30.22 in 10.0 mi WNW 23.0 mph 28.8 mph N/A   Scattered Clouds
8:35 AM 32.9 °F 20.1 °F 20.8 °F 61% 30.22 in 10.0 mi WNW 24.2 mph 36.8 mph N/A   Scattered Clouds
8:55 AM 33.1 °F 20.1 °F 21.0 °F 61% 30.22 in 10.0 mi WNW 25.3 mph 32.2 mph N/A   Clear
9:15 AM 33.4 °F 20.8 °F 21.7 °F 62% 30.23 in 10.0 mi NW 24.2 mph 32.2 mph N/A   Scattered Clouds
9:35 AM 32.4 °F 19.1 °F 19.0 °F 58% 30.24 in 10.0 mi NW 25.3 mph 36.8 mph N/A   Clear
9:55 AM 33.1 °F 19.6 °F 19.6 °F 58% 30.25 in 10.0 mi WNW 27.6 mph 34.5 mph N/A   Clear
10:15 AM 32.9 °F 19.8 °F 18.0 °F 54% 30.27 in 10.0 mi NW 25.3 mph 32.2 mph N/A   Clear
10:35 AM 33.3 °F 20.3 °F 18.5 °F 55% 30.26 in 10.0 mi WNW 25.3 mph 31.1 mph N/A   Clear
10:55 AM 34.0 °F 21.5 °F 19.8 °F 56% 30.27 in 10.0 mi WNW 24.2 mph 33.4 mph N/A   Clear
11:15 AM 33.3 °F 20.9 °F 18.1 °F 54% 30.27 in 10.0 mi WNW 23.0 mph 31.1 mph N/A   Clear
11:35 AM 34.5 °F 21.5 °F 19.2 °F 54% 30.28 in 10.0 mi WNW 27.6 mph 34.5 mph N/A   Scattered Clouds
11:55 AM 34.0 °F 21.3 °F 18.5 °F 53% 30.28 in 10.0 mi NW 25.3 mph 32.2 mph N/A   Scattered Clouds
12:15 PM 33.8 °F 22.2 °F 19.2 °F 55% 30.28 in 10.0 mi WNW 20.7 mph 33.4 mph N/A   Scattered Clouds
12:35 PM 33.6 °F 22.2 °F 18.9 °F 55% 30.28 in 10.0 mi NW 19.6 mph 32.2 mph N/A   Mostly Cloudy
12:55 PM 33.8 °F 21.9 °F 18.3 °F 53% 30.28 in 10.0 mi WNW 21.9 mph - N/A   Scattered Clouds
1:15 PM 33.8 °F 21.6 °F 18.1 °F 53% 30.29 in 10.0 mi NW 23.0 mph 34.5 mph N/A   Clear
1:35 PM 33.6 °F 20.5 °F 18.7 °F 54% 30.28 in 10.0 mi WNW 26.5 mph 31.1 mph N/A   Clear
1:55 PM 33.8 °F 20.8 °F 18.1 °F 53% 30.28 in 10.0 mi WNW 26.5 mph 29.9 mph N/A   Clear
2:15 PM 34.2 °F 22.6 °F 18.5 °F 53% 30.28 in 10.0 mi WNW 20.7 mph 26.5 mph N/A   Clear
2:35 PM 33.8 °F 21.3 °F 17.8 °F 52% 30.29 in 10.0 mi NW 24.2 mph 31.1 mph N/A   Clear
2:55 PM 33.8 °F 21.9 °F 18.5 °F 54% 30.29 in 10.0 mi WNW 21.9 mph 26.5 mph N/A   Clear
3:15 PM 32.4 °F 19.7 °F 17.4 °F 54% 30.31 in 10.0 mi NW 23.0 mph 28.8 mph N/A   Clear
3:35 PM 32.4 °F 20.0 °F 17.4 °F 54% 30.31 in 10.0 mi NW 21.9 mph 27.6 mph N/A   Clear
3:55 PM 32.0 °F 18.9 °F 17.1 °F 54% 30.32 in 10.0 mi WNW 24.2 mph 29.9 mph N/A   Clear
4:15 PM 31.3 °F 18.2 °F 17.6 °F 57% 30.32 in 10.0 mi NW 23.0 mph 27.6 mph N/A   Clear
4:35 PM 30.7 °F 18.8 °F 17.8 °F 59% 30.33 in 10.0 mi NW 18.4 mph 25.3 mph N/A   Clear
4:55 PM 29.8 °F 17.3 °F 17.6 °F 60% 30.33 in 10.0 mi WNW 19.6 mph - N/A   Clear
5:15 PM 29.3 °F 17.7 °F 18.0 °F 63% 30.33 in 10.0 mi NW 16.1 mph - N/A   Clear
5:35 PM 28.9 °F 16.5 °F 18.0 °F 64% 30.33 in 10.0 mi NW 18.4 mph 23.0 mph N/A   Clear
5:55 PM 28.4 °F 17.0 °F 18.1 °F 65% 30.34 in 10.0 mi WNW 15.0 mph - N/A   Clear
6:15 PM 28.4 °F 18.0 °F 17.6 °F 64% 30.34 in 10.0 mi NW 12.7 mph - N/A   Clear
6:35 PM 27.1 °F 18.2 °F 18.3 °F 69% 30.35 in 10.0 mi NW 9.2 mph - N/A   Clear
6:55 PM 25.5 °F 18.7 °F 18.3 °F 74% 30.35 in 10.0 mi WNW 5.8 mph - N/A   Clear
7:15 PM 25.3 °F 19.7 °F 18.1 °F 74% 30.35 in 10.0 mi WNW 4.6 mph - N/A   Clear
7:35 PM 24.8 °F 16.1 °F 18.3 °F 76% 30.34 in 10.0 mi WNW 8.1 mph - N/A   Clear
7:55 PM 25.7 °F 15.7 °F 18.3 °F 74% 30.34 in 10.0 mi WNW 10.4 mph - N/A   Clear
8:15 PM 25.5 °F 15.5 °F 18.5 °F 75% 30.34 in 10.0 mi WNW 10.4 mph - N/A   Clear
8:35 PM 24.8 °F 15.3 °F 18.5 °F 77% 30.34 in 10.0 mi WNW 9.2 mph - N/A   Clear
8:55 PM 24.8 °F 15.3 °F 18.5 °F 77% 30.33 in 10.0 mi WNW 9.2 mph - N/A   Clear
9:15 PM 24.8 °F 14.6 °F 18.5 °F 77% 30.33 in 10.0 mi WNW 10.4 mph - N/A   Clear
9:35 PM 25.0 °F 14.8 °F 18.5 °F 76% 30.33 in 10.0 mi WNW 10.4 mph - N/A   Clear
9:55 PM 24.8 °F 14.0 °F 18.5 °F 77% 30.33 in 10.0 mi WNW 11.5 mph - N/A   Clear
10:15 PM 24.8 °F 14.6 °F 18.1 °F 76% 30.33 in 10.0 mi NW 10.4 mph - N/A   Clear
10:35 PM 24.6 °F 14.4 °F 18.1 °F 76% 30.33 in 10.0 mi NW 10.4 mph - N/A   Clear
10:55 PM 24.3 °F 13.3 °F 18.0 °F 77% 30.33 in 10.0 mi NW 11.5 mph - N/A   Clear
11:15 PM 23.9 °F 13.5 °F 17.8 °F 77% 30.34 in 10.0 mi NW 10.4 mph - N/A   Clear
11:35 PM 23.9 °F 12.3 °F 17.6 °F 77% 30.33 in 10.0 mi NW 12.7 mph - N/A   Clear
11:55 PM 23.9 °F 12.3 °F 17.1 °F 75% 30.33 in 10.0 mi NW 12.7 mph - N/A   Clear